#ZEITBEREICH: 19.05.2023 bis 19.05.2024
Datum;Zeit;VBID NO AM1H [�g/m�];VBID NO2 AM1H [�g/m�];VBID PM10F GM24H [�g/m�]
19.05.2023;01:00;<7;14;15
19.05.2023;02:00;<7;22;15
19.05.2023;03:00;<7;17;15
19.05.2023;04:00;10;20;15
19.05.2023;05:00;22;27;16
19.05.2023;06:00;;;16
19.05.2023;07:00;37;41;16
19.05.2023;08:00;41;39;16
19.05.2023;09:00;23;26;16
19.05.2023;10:00;25;25;16
19.05.2023;11:00;18;23;17
19.05.2023;12:00;20;26;16
19.05.2023;13:00;22;24;16
19.05.2023;14:00;14;21;16
19.05.2023;15:00;14;23;16
19.05.2023;16:00;14;22;16
19.05.2023;17:00;15;24;16
19.05.2023;18:00;18;28;16
19.05.2023;19:00;10;22;16
19.05.2023;20:00;11;24;16
19.05.2023;21:00;16;32;15
19.05.2023;22:00;8;29;16
19.05.2023;23:00;<7;23;16
19.05.2023;24:00;<7;22;16
20.05.2023;01:00;<7;20;16
20.05.2023;02:00;<7;18;16
20.05.2023;03:00;<7;16;16
20.05.2023;04:00;8;19;16
20.05.2023;05:00;16;31;16
20.05.2023;06:00;14;26;16
20.05.2023;07:00;;;15
20.05.2023;08:00;14;19;15
20.05.2023;09:00;12;14;15
20.05.2023;10:00;11;15;15
20.05.2023;11:00;14;17;15
20.05.2023;12:00;16;18;15
20.05.2023;13:00;13;13;15
20.05.2023;14:00;15;17;15
20.05.2023;15:00;14;14;15
20.05.2023;16:00;12;17;15
20.05.2023;17:00;13;20;16
20.05.2023;18:00;15;21;16
20.05.2023;19:00;13;19;16
20.05.2023;20:00;11;19;16
20.05.2023;21:00;13;23;16
20.05.2023;22:00;10;22;16
20.05.2023;23:00;8;20;16
20.05.2023;24:00;8;19;16
21.05.2023;01:00;7;16;16
21.05.2023;02:00;<7;14;16
21.05.2023;03:00;<7;<10;16
21.05.2023;04:00;<7;<10;16
21.05.2023;05:00;<7;11;16
21.05.2023;06:00;<7;13;16
21.05.2023;07:00;<7;<10;16
21.05.2023;08:00;;;16
21.05.2023;09:00;9;11;16
21.05.2023;10:00;12;14;17
21.05.2023;11:00;12;13;17
21.05.2023;12:00;10;12;18
21.05.2023;13:00;12;16;18
21.05.2023;14:00;11;18;19
21.05.2023;15:00;12;18;20
21.05.2023;16:00;8;16;20
21.05.2023;17:00;10;17;21
21.05.2023;18:00;9;18;21
21.05.2023;19:00;<7;18;22
21.05.2023;20:00;8;30;22
21.05.2023;21:00;9;35;23
21.05.2023;22:00;7;29;23
21.05.2023;23:00;<7;20;24
21.05.2023;24:00;<7;19;24
22.05.2023;01:00;<7;17;25
22.05.2023;02:00;<7;<10;25
22.05.2023;03:00;<7;<10;25
22.05.2023;04:00;<7;13;26
22.05.2023;05:00;25;33;27
22.05.2023;06:00;31;36;28
22.05.2023;07:00;46;40;29
22.05.2023;08:00;40;49;30
22.05.2023;09:00;;;30
22.05.2023;10:00;20;29;31
22.05.2023;11:00;21;25;31
22.05.2023;12:00;13;23;31
22.05.2023;13:00;17;34;32
22.05.2023;14:00;14;33;32
22.05.2023;15:00;14;30;32
22.05.2023;16:00;13;32;32
22.05.2023;17:00;11;32;32
22.05.2023;18:00;<7;16;31
22.05.2023;19:00;10;31;31
22.05.2023;20:00;<7;17;30
22.05.2023;21:00;<7;15;29
22.05.2023;22:00;<7;12;29
22.05.2023;23:00;<7;11;28
22.05.2023;24:00;<7;11;28
23.05.2023;01:00;<7;<10;28
23.05.2023;02:00;<7;<10;28
23.05.2023;03:00;<7;<10;28
23.05.2023;04:00;<7;<10;27
23.05.2023;05:00;10;17;26
23.05.2023;06:00;11;20;25
23.05.2023;07:00;24;34;25
23.05.2023;08:00;19;29;24
23.05.2023;09:00;10;17;23
23.05.2023;10:00;;;22
23.05.2023;11:00;11;18;21
23.05.2023;12:00;15;17;20
23.05.2023;13:00;16;21;20
23.05.2023;14:00;11;14;19
23.05.2023;15:00;14;18;19
23.05.2023;16:00;15;20;18
23.05.2023;17:00;17;22;18
23.05.2023;18:00;10;18;18
23.05.2023;19:00;8;13;18
23.05.2023;20:00;<7;12;18
23.05.2023;21:00;<7;14;18
23.05.2023;22:00;<7;11;19
23.05.2023;23:00;<7;12;18
23.05.2023;24:00;<7;<10;18
24.05.2023;01:00;<7;<10;18
24.05.2023;02:00;<7;<10;17
24.05.2023;03:00;<7;<10;17
24.05.2023;04:00;<7;15;18
24.05.2023;05:00;19;25;18
24.05.2023;06:00;25;28;19
24.05.2023;07:00;26;33;19
24.05.2023;08:00;31;30;19
24.05.2023;09:00;18;25;20
24.05.2023;10:00;20;24;20
24.05.2023;11:00;;;21
24.05.2023;12:00;24;27;22
24.05.2023;13:00;25;30;22
24.05.2023;14:00;22;30;22
24.05.2023;15:00;23;33;23
24.05.2023;16:00;34;41;23
24.05.2023;17:00;31;37;24
24.05.2023;18:00;23;29;24
24.05.2023;19:00;15;24;25
24.05.2023;20:00;17;26;25
24.05.2023;21:00;10;27;25
24.05.2023;22:00;<7;20;26
24.05.2023;23:00;<7;19;26
24.05.2023;24:00;9;19;26
25.05.2023;01:00;<7;17;26
25.05.2023;02:00;<7;14;26
25.05.2023;03:00;<7;<10;26
25.05.2023;04:00;9;14;26
25.05.2023;05:00;26;22;25
25.05.2023;06:00;46;34;25
25.05.2023;07:00;51;47;25
25.05.2023;08:00;43;44;25
25.05.2023;09:00;23;30;25
25.05.2023;10:00;30;34;25
25.05.2023;11:00;24;29;24
25.05.2023;12:00;;;24
25.05.2023;13:00;20;24;24
25.05.2023;14:00;25;30;24
25.05.2023;15:00;22;30;23
25.05.2023;16:00;25;32;23
25.05.2023;17:00;21;26;23
25.05.2023;18:00;23;32;22
25.05.2023;19:00;16;32;22
25.05.2023;20:00;11;25;22
25.05.2023;21:00;13;27;22
25.05.2023;22:00;<7;20;22
25.05.2023;23:00;<7;14;22
25.05.2023;24:00;<7;13;22
26.05.2023;01:00;<7;11;22
26.05.2023;02:00;<7;10;23
26.05.2023;03:00;<7;13;23
26.05.2023;04:00;8;20;23
26.05.2023;05:00;29;32;24
26.05.2023;06:00;25;33;24
26.05.2023;07:00;41;37;24
26.05.2023;08:00;31;27;24
26.05.2023;09:00;21;22;24
26.05.2023;10:00;21;19;24
26.05.2023;11:00;19;19;25
26.05.2023;12:00;20;20;25
26.05.2023;13:00;;;25
26.05.2023;14:00;16;21;25
26.05.2023;15:00;13;18;25
26.05.2023;16:00;13;18;25
26.05.2023;17:00;15;21;25
26.05.2023;18:00;14;21;25
26.05.2023;19:00;14;23;25
26.05.2023;20:00;15;25;25
26.05.2023;21:00;12;26;25
26.05.2023;22:00;10;24;25
26.05.2023;23:00;7;19;25
26.05.2023;24:00;<7;17;25
27.05.2023;01:00;<7;13;25
27.05.2023;02:00;<7;13;24
27.05.2023;03:00;<7;10;24
27.05.2023;04:00;8;16;24
27.05.2023;05:00;17;24;23
27.05.2023;06:00;16;24;24
27.05.2023;07:00;15;20;23
27.05.2023;08:00;15;18;23
27.05.2023;09:00;17;21;23
27.05.2023;10:00;16;17;23
27.05.2023;11:00;17;18;22
27.05.2023;12:00;17;18;22
27.05.2023;13:00;16;20;22
27.05.2023;14:00;;;21
27.05.2023;15:00;11;17;21
27.05.2023;16:00;14;20;21
27.05.2023;17:00;11;20;20
27.05.2023;18:00;10;18;20
27.05.2023;19:00;14;23;20
27.05.2023;20:00;12;24;19
27.05.2023;21:00;10;30;19
27.05.2023;22:00;9;32;19
27.05.2023;23:00;9;28;19
27.05.2023;24:00;<7;21;19
28.05.2023;01:00;<7;23;19
28.05.2023;02:00;<7;21;19
28.05.2023;03:00;<7;31;19
28.05.2023;04:00;<7;25;19
28.05.2023;05:00;<7;21;19
28.05.2023;06:00;<7;21;19
28.05.2023;07:00;9;20;19
28.05.2023;08:00;10;20;19
28.05.2023;09:00;9;19;18
28.05.2023;10:00;9;13;18
28.05.2023;11:00;8;13;18
28.05.2023;12:00;8;14;17
28.05.2023;13:00;7;12;17
28.05.2023;14:00;10;15;17
28.05.2023;15:00;;;17
28.05.2023;16:00;<7;14;17
28.05.2023;17:00;<7;16;17
28.05.2023;18:00;<7;17;17
28.05.2023;19:00;7;18;18
28.05.2023;20:00;<7;18;18
28.05.2023;21:00;<7;15;17
28.05.2023;22:00;9;16;17
28.05.2023;23:00;<7;14;17
28.05.2023;24:00;10;15;16
29.05.2023;01:00;<7;<10;16
29.05.2023;02:00;<7;<10;16
29.05.2023;03:00;<7;<10;15
29.05.2023;04:00;<7;<10;15
29.05.2023;05:00;<7;<10;15
29.05.2023;06:00;<7;<10;15
29.05.2023;07:00;<7;<10;15
29.05.2023;08:00;<7;<10;15
29.05.2023;09:00;<7;<10;15
29.05.2023;10:00;7;<10;15
29.05.2023;11:00;11;12;15
29.05.2023;12:00;8;<10;15
29.05.2023;13:00;10;10;15
29.05.2023;14:00;8;<10;15
29.05.2023;15:00;8;10;15
29.05.2023;16:00;;;15
29.05.2023;17:00;8;14;15
29.05.2023;18:00;9;18;15
29.05.2023;19:00;10;18;16
29.05.2023;20:00;10;20;16
29.05.2023;21:00;<7;15;16
29.05.2023;22:00;8;15;16
29.05.2023;23:00;<7;12;16
29.05.2023;24:00;<7;<10;16
30.05.2023;01:00;<7;<10;16
30.05.2023;02:00;<7;<10;17
30.05.2023;03:00;<7;<10;17
30.05.2023;04:00;<7;<10;17
30.05.2023;05:00;17;19;18
30.05.2023;06:00;16;24;18
30.05.2023;07:00;33;37;19
30.05.2023;08:00;27;34;19
30.05.2023;09:00;21;25;19
30.05.2023;10:00;20;21;20
30.05.2023;11:00;16;17;20
30.05.2023;12:00;17;21;20
30.05.2023;13:00;14;18;20
30.05.2023;14:00;16;20;20
30.05.2023;15:00;19;18;20
30.05.2023;16:00;20;20;20
30.05.2023;17:00;;;20
30.05.2023;18:00;16;22;20
30.05.2023;19:00;14;19;20
30.05.2023;20:00;14;22;20
30.05.2023;21:00;12;28;20
30.05.2023;22:00;7;29;19
30.05.2023;23:00;8;20;19
30.05.2023;24:00;<7;13;19
31.05.2023;01:00;<7;16;19
31.05.2023;02:00;<7;16;18
31.05.2023;03:00;<7;15;18
31.05.2023;04:00;8;20;18
31.05.2023;05:00;25;31;18
31.05.2023;06:00;41;36;18
31.05.2023;07:00;55;39;18
31.05.2023;08:00;41;36;18
31.05.2023;09:00;30;33;18
31.05.2023;10:00;27;32;18
31.05.2023;11:00;16;26;18
31.05.2023;12:00;20;26;18
31.05.2023;13:00;15;22;18
31.05.2023;14:00;18;22;18
31.05.2023;15:00;18;28;18
31.05.2023;16:00;19;30;18
31.05.2023;17:00;17;26;18
31.05.2023;18:00;;;18
31.05.2023;19:00;16;34;18
31.05.2023;20:00;8;25;18
31.05.2023;21:00;9;25;18
31.05.2023;22:00;7;19;18
31.05.2023;23:00;<7;11;19
31.05.2023;24:00;<7;11;19
01.06.2023;01:00;<7;<10;19
01.06.2023;02:00;<7;<10;19
01.06.2023;03:00;<7;<10;19
01.06.2023;04:00;<7;<10;19
01.06.2023;05:00;14;18;19
01.06.2023;06:00;19;23;18
01.06.2023;07:00;34;38;18
01.06.2023;08:00;33;37;18
01.06.2023;09:00;22;29;19
01.06.2023;10:00;19;24;18
01.06.2023;11:00;21;24;19
01.06.2023;12:00;25;24;19
01.06.2023;13:00;19;24;19
01.06.2023;14:00;19;23;19
01.06.2023;15:00;22;25;18
01.06.2023;16:00;20;27;19
01.06.2023;17:00;21;23;18
01.06.2023;18:00;15;21;18
01.06.2023;19:00;;;19
01.06.2023;20:00;13;19;18
01.06.2023;21:00;10;19;18
01.06.2023;22:00;7;17;18
01.06.2023;23:00;<7;<10;18
01.06.2023;24:00;<7;<10;19
02.06.2023;01:00;<7;<10;19
02.06.2023;02:00;<7;<10;19
02.06.2023;03:00;<7;<10;19
02.06.2023;04:00;<7;<10;20
02.06.2023;05:00;24;27;20
02.06.2023;06:00;;;20
02.06.2023;07:00;45;48;20
02.06.2023;08:00;29;39;20
02.06.2023;09:00;22;31;21
02.06.2023;10:00;22;27;21
02.06.2023;11:00;25;31;21
02.06.2023;12:00;26;28;22
02.06.2023;13:00;24;24;22
02.06.2023;14:00;20;24;23
02.06.2023;15:00;21;24;23
02.06.2023;16:00;18;24;23
02.06.2023;17:00;21;29;24
02.06.2023;18:00;22;33;24
02.06.2023;19:00;18;25;24
02.06.2023;20:00;19;35;25
02.06.2023;21:00;13;33;25
02.06.2023;22:00;14;33;26
02.06.2023;23:00;9;27;26
02.06.2023;24:00;<7;22;26
03.06.2023;01:00;10;27;26
03.06.2023;02:00;<7;19;26
03.06.2023;03:00;<7;22;25
03.06.2023;04:00;7;22;25
03.06.2023;05:00;14;19;24
03.06.2023;06:00;16;23;24
03.06.2023;07:00;;;23
03.06.2023;08:00;12;18;22
03.06.2023;09:00;23;23;21
03.06.2023;10:00;15;16;21
03.06.2023;11:00;15;17;20
03.06.2023;12:00;16;19;19
03.06.2023;13:00;17;20;18
03.06.2023;14:00;14;19;17
03.06.2023;15:00;12;17;17
03.06.2023;16:00;15;17;16
03.06.2023;17:00;16;20;16
03.06.2023;18:00;12;22;15
03.06.2023;19:00;9;20;15
03.06.2023;20:00;12;25;14
03.06.2023;21:00;15;35;14
03.06.2023;22:00;10;33;13
03.06.2023;23:00;<7;23;13
03.06.2023;24:00;<7;21;12
04.06.2023;01:00;<7;26;12
04.06.2023;02:00;<7;26;12
04.06.2023;03:00;<7;21;12
04.06.2023;04:00;<7;20;12
04.06.2023;05:00;<7;16;11
04.06.2023;06:00;8;21;11
04.06.2023;07:00;7;18;11
04.06.2023;08:00;;;11
04.06.2023;09:00;12;13;11
04.06.2023;10:00;<7;<10;12
04.06.2023;11:00;8;<10;12
04.06.2023;12:00;<7;<10;12
04.06.2023;13:00;10;14;12
04.06.2023;14:00;9;12;12
04.06.2023;15:00;<7;<10;12
04.06.2023;16:00;<7;11;12
04.06.2023;17:00;<7;12;12
04.06.2023;18:00;8;14;12
04.06.2023;19:00;8;16;12
04.06.2023;20:00;<7;17;12
04.06.2023;21:00;<7;21;12
04.06.2023;22:00;<7;<10;12
04.06.2023;23:00;<7;<10;13
04.06.2023;24:00;<7;<10;13
05.06.2023;01:00;<7;11;13
05.06.2023;02:00;<7;<10;13
05.06.2023;03:00;<7;<10;13
05.06.2023;04:00;<7;11;13
05.06.2023;05:00;18;20;13
05.06.2023;06:00;25;27;14
05.06.2023;07:00;38;30;14
05.06.2023;08:00;42;31;15
05.06.2023;09:00;;;15
05.06.2023;10:00;25;28;15
05.06.2023;11:00;23;29;16
05.06.2023;12:00;16;25;16
05.06.2023;13:00;18;23;17
05.06.2023;14:00;13;24;17
05.06.2023;15:00;20;32;17
05.06.2023;16:00;15;32;17
05.06.2023;17:00;17;35;17
05.06.2023;18:00;14;30;18
05.06.2023;19:00;12;32;18
05.06.2023;20:00;11;36;18
05.06.2023;21:00;11;39;19
05.06.2023;22:00;<7;21;19
05.06.2023;23:00;<7;17;20
05.06.2023;24:00;<7;12;20
06.06.2023;01:00;<7;14;20
06.06.2023;02:00;<7;16;20
06.06.2023;03:00;<7;13;20
06.06.2023;04:00;12;17;20
06.06.2023;05:00;28;29;20
06.06.2023;06:00;27;32;21
06.06.2023;07:00;44;40;21
06.06.2023;08:00;44;38;21
06.06.2023;09:00;28;31;21
06.06.2023;10:00;;;21
06.06.2023;11:00;20;25;22
06.06.2023;12:00;20;32;21
06.06.2023;13:00;19;32;21
06.06.2023;14:00;21;35;22
06.06.2023;15:00;25;44;23
06.06.2023;16:00;28;48;24
06.06.2023;17:00;17;38;24
06.06.2023;18:00;16;39;25
06.06.2023;19:00;10;36;25
06.06.2023;20:00;10;31;25
06.06.2023;21:00;10;30;26
06.06.2023;22:00;<7;20;26
06.06.2023;23:00;<7;15;25
06.06.2023;24:00;<7;<10;25
07.06.2023;01:00;<7;12;25
07.06.2023;02:00;<7;<10;25
07.06.2023;03:00;<7;11;25
07.06.2023;04:00;9;15;25
07.06.2023;05:00;22;25;25
07.06.2023;06:00;42;36;25
07.06.2023;07:00;53;40;24
07.06.2023;08:00;47;35;24
07.06.2023;09:00;38;34;24
07.06.2023;10:00;37;35;23
07.06.2023;11:00;;;23
07.06.2023;12:00;27;28;24
07.06.2023;13:00;25;30;24
07.06.2023;14:00;24;32;23
07.06.2023;15:00;22;30;23
07.06.2023;16:00;22;31;22
07.06.2023;17:00;17;32;22
07.06.2023;18:00;17;33;22
07.06.2023;19:00;12;32;22
07.06.2023;20:00;12;36;22
07.06.2023;21:00;14;48;22
07.06.2023;22:00;8;38;22
07.06.2023;23:00;<7;24;22
07.06.2023;24:00;9;26;22
08.06.2023;01:00;<7;19;23
08.06.2023;02:00;<7;15;23
08.06.2023;03:00;<7;13;23
08.06.2023;04:00;<7;14;23
08.06.2023;05:00;<7;13;23
08.06.2023;06:00;<7;15;23
08.06.2023;07:00;<7;15;23
08.06.2023;08:00;8;14;23
08.06.2023;09:00;11;15;23
08.06.2023;10:00;10;17;24
08.06.2023;11:00;14;18;23
08.06.2023;12:00;;;23
08.06.2023;13:00;9;17;23
08.06.2023;14:00;9;17;23
08.06.2023;15:00;7;16;23
08.06.2023;16:00;<7;15;23
08.06.2023;17:00;8;17;23
08.06.2023;18:00;10;26;23
08.06.2023;19:00;10;26;23
08.06.2023;20:00;7;26;23
08.06.2023;21:00;<7;28;23
08.06.2023;22:00;<7;33;23
08.06.2023;23:00;<7;29;23
08.06.2023;24:00;<7;25;23
09.06.2023;01:00;<7;20;23
09.06.2023;02:00;<7;18;23
09.06.2023;03:00;<7;15;23
09.06.2023;04:00;<7;19;23
09.06.2023;05:00;21;27;23
09.06.2023;06:00;28;33;24
09.06.2023;07:00;40;44;25
09.06.2023;08:00;28;45;25
09.06.2023;09:00;20;34;25
09.06.2023;10:00;16;30;26
09.06.2023;11:00;14;26;26
09.06.2023;12:00;16;29;26
09.06.2023;13:00;;;26
09.06.2023;14:00;14;30;26
09.06.2023;15:00;13;29;26
09.06.2023;16:00;16;28;26
09.06.2023;17:00;11;30;26
09.06.2023;18:00;14;28;26
09.06.2023;19:00;12;26;26
09.06.2023;20:00;11;31;26
09.06.2023;21:00;<7;32;26
09.06.2023;22:00;8;36;27
09.06.2023;23:00;<7;30;27
09.06.2023;24:00;<7;36;27
10.06.2023;01:00;<7;25;27
10.06.2023;02:00;<7;26;27
10.06.2023;03:00;<7;17;27
10.06.2023;04:00;<7;16;27
10.06.2023;05:00;<7;23;27
10.06.2023;06:00;10;25;26
10.06.2023;07:00;9;19;25
10.06.2023;08:00;14;21;25
10.06.2023;09:00;17;24;24
10.06.2023;10:00;17;24;26
10.06.2023;11:00;14;23;25
10.06.2023;12:00;14;21;25
10.06.2023;13:00;11;24;25
10.06.2023;14:00;;;24
10.06.2023;15:00;8;20;24
10.06.2023;16:00;9;19;24
10.06.2023;17:00;7;21;24
10.06.2023;18:00;8;22;25
10.06.2023;19:00;<7;20;25
10.06.2023;20:00;<7;25;25
10.06.2023;21:00;<7;20;25
10.06.2023;22:00;<7;25;25
10.06.2023;23:00;<7;26;25
10.06.2023;24:00;<7;16;25
11.06.2023;01:00;<7;24;25
11.06.2023;02:00;<7;15;25
11.06.2023;03:00;<7;<10;25
11.06.2023;04:00;<7;13;25
11.06.2023;05:00;<7;17;25
11.06.2023;06:00;<7;16;24
11.06.2023;07:00;<7;16;25
11.06.2023;08:00;<7;12;25
11.06.2023;09:00;<7;13;25
11.06.2023;10:00;<7;14;24
11.06.2023;11:00;7;15;25
11.06.2023;12:00;<7;13;25
11.06.2023;13:00;7;15;25
11.06.2023;14:00;<7;16;25
11.06.2023;15:00;;;25
11.06.2023;16:00;8;16;25
11.06.2023;17:00;8;18;25
11.06.2023;18:00;9;21;24
11.06.2023;19:00;7;20;23
11.06.2023;20:00;8;23;23
11.06.2023;21:00;<7;26;23
11.06.2023;22:00;<7;27;23
11.06.2023;23:00;<7;15;22
11.06.2023;24:00;<7;14;22
12.06.2023;01:00;<7;19;22
12.06.2023;02:00;<7;20;22
12.06.2023;03:00;<7;21;21
12.06.2023;04:00;<7;16;22
12.06.2023;05:00;17;27;22
12.06.2023;06:00;26;45;22
12.06.2023;07:00;46;61;22
12.06.2023;08:00;39;58;22
12.06.2023;09:00;26;38;22
12.06.2023;10:00;15;34;22
12.06.2023;11:00;15;27;22
12.06.2023;12:00;14;23;22
12.06.2023;13:00;15;25;22
12.06.2023;14:00;17;28;22
12.06.2023;15:00;14;28;22
12.06.2023;16:00;;;22
12.06.2023;17:00;16;30;23
12.06.2023;18:00;12;27;23
12.06.2023;19:00;11;24;23
12.06.2023;20:00;9;24;23
12.06.2023;21:00;8;28;23
12.06.2023;22:00;<7;27;24
12.06.2023;23:00;<7;14;24
12.06.2023;24:00;<7;14;24
13.06.2023;01:00;<7;13;24
13.06.2023;02:00;<7;20;24
13.06.2023;03:00;<7;15;24
13.06.2023;04:00;<7;18;24
13.06.2023;05:00;19;32;24
13.06.2023;06:00;29;43;24
13.06.2023;07:00;37;53;25
13.06.2023;08:00;29;50;24
13.06.2023;09:00;21;35;24
13.06.2023;10:00;17;25;24
13.06.2023;11:00;13;21;24
13.06.2023;12:00;15;26;24
13.06.2023;13:00;13;23;24
13.06.2023;14:00;13;25;24
13.06.2023;15:00;16;33;24
13.06.2023;16:00;15;33;24
13.06.2023;17:00;;;25
13.06.2023;18:00;16;40;25
13.06.2023;19:00;13;35;25
13.06.2023;20:00;9;31;26
13.06.2023;21:00;8;34;26
13.06.2023;22:00;<7;29;26
13.06.2023;23:00;8;17;26
13.06.2023;24:00;<7;16;26
14.06.2023;01:00;<7;14;26
14.06.2023;02:00;<7;13;26
14.06.2023;03:00;<7;13;26
14.06.2023;04:00;<7;17;26
14.06.2023;05:00;22;30;26
14.06.2023;06:00;23;42;26
14.06.2023;07:00;33;39;26
14.06.2023;08:00;24;24;25
14.06.2023;09:00;12;20;25
14.06.2023;10:00;13;21;25
14.06.2023;11:00;17;18;24
14.06.2023;12:00;12;22;24
14.06.2023;13:00;16;24;24
14.06.2023;14:00;14;21;23
14.06.2023;15:00;16;27;22
14.06.2023;16:00;17;30;22
14.06.2023;17:00;17;27;22
14.06.2023;18:00;;;21
14.06.2023;19:00;19;25;21
14.06.2023;20:00;8;23;21
14.06.2023;21:00;9;26;22
14.06.2023;22:00;<7;16;21
14.06.2023;23:00;<7;12;21
14.06.2023;24:00;<7;17;21
15.06.2023;01:00;<7;18;21
15.06.2023;02:00;<7;12;21
15.06.2023;03:00;<7;13;21
15.06.2023;04:00;<7;15;22
15.06.2023;05:00;11;21;21
15.06.2023;06:00;23;40;21
15.06.2023;07:00;43;49;22
15.06.2023;08:00;32;42;23
15.06.2023;09:00;20;35;23
15.06.2023;10:00;17;23;24
15.06.2023;11:00;14;21;24
15.06.2023;12:00;12;22;24
15.06.2023;13:00;17;28;25
15.06.2023;14:00;16;28;25
15.06.2023;15:00;20;32;25
15.06.2023;16:00;22;38;25
15.06.2023;17:00;13;29;25
15.06.2023;18:00;8;24;25
15.06.2023;19:00;;;26
15.06.2023;20:00;11;26;26
15.06.2023;21:00;13;28;24
15.06.2023;22:00;8;26;25
15.06.2023;23:00;<7;21;24
15.06.2023;24:00;<7;16;24
16.06.2023;01:00;<7;16;24
16.06.2023;02:00;<7;13;24
16.06.2023;03:00;<7;13;24
16.06.2023;04:00;<7;17;24
16.06.2023;05:00;11;27;24
16.06.2023;06:00;19;37;24
16.06.2023;07:00;30;61;24
16.06.2023;08:00;23;49;24
16.06.2023;09:00;20;41;24
16.06.2023;10:00;12;29;23
16.06.2023;11:00;14;29;23
16.06.2023;12:00;19;36;23
16.06.2023;13:00;11;27;23
16.06.2023;14:00;12;25;24
16.06.2023;15:00;11;26;24
16.06.2023;16:00;10;30;24
16.06.2023;17:00;9;21;24
16.06.2023;18:00;9;21;24
16.06.2023;19:00;9;23;24
16.06.2023;20:00;;;24
16.06.2023;21:00;<7;23;24
16.06.2023;22:00;<7;34;24
16.06.2023;23:00;<7;23;24
16.06.2023;24:00;<7;16;24
17.06.2023;01:00;<7;15;24
17.06.2023;02:00;<7;<10;24
17.06.2023;03:00;<7;<10;24
17.06.2023;04:00;<7;<10;24
17.06.2023;05:00;<7;18;23
17.06.2023;06:00;<7;11;23
17.06.2023;07:00;<7;16;23
17.06.2023;08:00;7;20;23
17.06.2023;09:00;7;17;23
17.06.2023;10:00;<7;14;23
17.06.2023;11:00;<7;14;23
17.06.2023;12:00;8;20;23
17.06.2023;13:00;8;14;22
17.06.2023;14:00;<7;18;22
17.06.2023;15:00;8;15;22
17.06.2023;16:00;<7;15;22
17.06.2023;17:00;<7;17;22
17.06.2023;18:00;<7;18;22
17.06.2023;19:00;<7;24;22
17.06.2023;20:00;<7;25;22
17.06.2023;21:00;;;22
17.06.2023;22:00;<7;27;22
17.06.2023;23:00;<7;26;22
17.06.2023;24:00;<7;28;22
18.06.2023;01:00;<7;30;23
18.06.2023;02:00;<7;27;23
18.06.2023;03:00;<7;15;23
18.06.2023;04:00;<7;18;23
18.06.2023;05:00;<7;17;24
18.06.2023;06:00;<7;22;24
18.06.2023;07:00;<7;22;24
18.06.2023;08:00;10;21;24
18.06.2023;09:00;<7;18;24
18.06.2023;10:00;<7;18;24
18.06.2023;11:00;8;17;24
18.06.2023;12:00;<7;16;24
18.06.2023;13:00;9;22;24
18.06.2023;14:00;<7;18;24
18.06.2023;15:00;8;17;24
18.06.2023;16:00;7;19;24
18.06.2023;17:00;8;22;24
18.06.2023;18:00;<7;24;24
18.06.2023;19:00;7;23;23
18.06.2023;20:00;9;24;23
18.06.2023;21:00;<7;21;23
18.06.2023;22:00;;;23
18.06.2023;23:00;<7;11;23
18.06.2023;24:00;<7;<10;23
19.06.2023;01:00;<7;<10;22
19.06.2023;02:00;<7;<10;22
19.06.2023;03:00;<7;<10;22
19.06.2023;04:00;<7;<10;21
19.06.2023;05:00;<7;<10;21
19.06.2023;06:00;<7;<10;21
19.06.2023;07:00;10;20;21
19.06.2023;08:00;7;14;20
19.06.2023;09:00;<7;10;20
19.06.2023;10:00;<7;<10;19
19.06.2023;11:00;<7;10;19
19.06.2023;12:00;11;14;19
19.06.2023;13:00;11;16;19
19.06.2023;14:00;8;12;19
19.06.2023;15:00;8;15;19
19.06.2023;16:00;9;19;19
19.06.2023;17:00;8;22;19
19.06.2023;18:00;8;19;19
19.06.2023;19:00;<7;15;20
19.06.2023;20:00;8;25;20
19.06.2023;21:00;7;24;20
19.06.2023;22:00;<7;13;20
19.06.2023;23:00;;;20
19.06.2023;24:00;<7;14;20
20.06.2023;01:00;<7;19;20
20.06.2023;02:00;<7;23;20
20.06.2023;03:00;<7;23;20
20.06.2023;04:00;<7;26;20
20.06.2023;05:00;19;37;20
20.06.2023;06:00;18;39;21
20.06.2023;07:00;30;50;21
20.06.2023;08:00;38;53;21
20.06.2023;09:00;34;48;21
20.06.2023;10:00;26;37;21
20.06.2023;11:00;18;30;22
20.06.2023;12:00;18;31;22
20.06.2023;13:00;16;30;22
20.06.2023;14:00;13;29;22
20.06.2023;15:00;12;26;22
20.06.2023;16:00;9;27;22
20.06.2023;17:00;7;21;21
20.06.2023;18:00;8;24;21
20.06.2023;19:00;<7;25;20
20.06.2023;20:00;<7;32;20
20.06.2023;21:00;<7;23;20
20.06.2023;22:00;<7;12;20
20.06.2023;23:00;<7;<10;20
20.06.2023;24:00;;;20
21.06.2023;01:00;<7;<10;19
21.06.2023;02:00;<7;<10;19
21.06.2023;03:00;<7;13;19
21.06.2023;04:00;<7;14;19
21.06.2023;05:00;<7;17;19
21.06.2023;06:00;<7;24;19
21.06.2023;07:00;8;27;19
21.06.2023;08:00;<7;24;18
21.06.2023;09:00;<7;24;18
21.06.2023;10:00;<7;20;19
21.06.2023;11:00;8;25;19
21.06.2023;12:00;<7;22;19
21.06.2023;13:00;<7;24;19
21.06.2023;14:00;10;32;19
21.06.2023;15:00;8;29;19
21.06.2023;16:00;14;38;19
21.06.2023;17:00;8;30;19
21.06.2023;18:00;<7;27;19
21.06.2023;19:00;<7;32;19
21.06.2023;20:00;<7;31;19
21.06.2023;21:00;<7;30;19
21.06.2023;22:00;<7;22;19
21.06.2023;23:00;<7;20;19
21.06.2023;24:00;<7;14;18
22.06.2023;01:00;;;18
22.06.2023;02:00;<7;17;18
22.06.2023;03:00;<7;15;18
22.06.2023;04:00;7;20;18
22.06.2023;05:00;19;30;19
22.06.2023;06:00;30;43;19
22.06.2023;07:00;32;46;19
22.06.2023;08:00;32;45;19
22.06.2023;09:00;22;40;19
22.06.2023;10:00;23;38;19
22.06.2023;11:00;22;36;19
22.06.2023;12:00;17;26;20
22.06.2023;13:00;13;29;19
22.06.2023;14:00;14;34;20
22.06.2023;15:00;15;44;20
22.06.2023;16:00;22;43;20
22.06.2023;17:00;14;31;21
22.06.2023;18:00;13;34;21
22.06.2023;19:00;10;30;22
22.06.2023;20:00;8;23;22
22.06.2023;21:00;<7;21;22
22.06.2023;22:00;<7;19;22
22.06.2023;23:00;<7;15;23
22.06.2023;24:00;<7;<10;23
23.06.2023;01:00;<7;<10;24
23.06.2023;02:00;;;24
23.06.2023;03:00;<7;<10;24
23.06.2023;04:00;<7;<10;24
23.06.2023;05:00;11;12;23
23.06.2023;06:00;12;16;22
23.06.2023;07:00;31;32;21
23.06.2023;08:00;27;31;20
23.06.2023;09:00;15;23;19
23.06.2023;10:00;13;23;18
23.06.2023;11:00;27;23;18
23.06.2023;12:00;24;30;17
23.06.2023;13:00;18;27;17
23.06.2023;14:00;10;18;17
23.06.2023;15:00;10;15;16
23.06.2023;16:00;11;19;15
23.06.2023;17:00;14;21;15
23.06.2023;18:00;9;19;15
23.06.2023;19:00;11;22;14
23.06.2023;20:00;<7;21;14
23.06.2023;21:00;9;21;13
23.06.2023;22:00;7;27;13
23.06.2023;23:00;7;21;13
23.06.2023;24:00;<7;11;12
24.06.2023;01:00;<7;<10;12
24.06.2023;02:00;<7;<10;12
24.06.2023;03:00;;;12
24.06.2023;04:00;<7;<10;12
24.06.2023;05:00;<7;16;12
24.06.2023;06:00;13;26;13
24.06.2023;07:00;18;29;13
24.06.2023;08:00;15;25;13
24.06.2023;09:00;7;18;14
24.06.2023;10:00;13;23;14
24.06.2023;11:00;<7;18;14
24.06.2023;12:00;12;24;14
24.06.2023;13:00;8;22;14
24.06.2023;14:00;7;22;14
24.06.2023;15:00;<7;22;15
24.06.2023;16:00;<7;21;15
24.06.2023;17:00;<7;29;15
24.06.2023;18:00;<7;31;16
24.06.2023;19:00;<7;37;16
24.06.2023;20:00;7;36;17
24.06.2023;21:00;<7;26;17
24.06.2023;22:00;<7;23;18
24.06.2023;23:00;<7;25;18
24.06.2023;24:00;<7;24;18
25.06.2023;01:00;<7;22;18
25.06.2023;02:00;<7;28;19
25.06.2023;03:00;<7;24;20
25.06.2023;04:00;;;20
25.06.2023;05:00;<7;26;21
25.06.2023;06:00;<7;17;21
25.06.2023;07:00;<7;16;21
25.06.2023;08:00;9;15;21
25.06.2023;09:00;<7;15;22
25.06.2023;10:00;<7;10;21
25.06.2023;11:00;<7;11;21
25.06.2023;12:00;<7;<10;21
25.06.2023;13:00;<7;<10;21
25.06.2023;14:00;<7;13;21
25.06.2023;15:00;<7;13;21
25.06.2023;16:00;<7;10;21
25.06.2023;17:00;<7;13;20
25.06.2023;18:00;<7;11;20
25.06.2023;19:00;<7;10;19
25.06.2023;20:00;<7;21;19
25.06.2023;21:00;7;23;18
25.06.2023;22:00;<7;18;18
25.06.2023;23:00;<7;12;18
25.06.2023;24:00;<7;18;18
26.06.2023;01:00;<7;<10;17
26.06.2023;02:00;<7;<10;17
26.06.2023;03:00;<7;<10;16
26.06.2023;04:00;<7;<10;16
26.06.2023;05:00;;;16
26.06.2023;06:00;<7;<10;15
26.06.2023;07:00;<7;13;15
26.06.2023;08:00;<7;22;15
26.06.2023;09:00;<7;17;15
26.06.2023;10:00;<7;16;16
26.06.2023;11:00;7;15;16
26.06.2023;12:00;9;17;17
26.06.2023;13:00;<7;16;17
26.06.2023;14:00;<7;14;17